weather.gov     
National Weather Service

Terminal Aerodrome Forecast
NWS Homepage
This page is being discontinued on March 12, 2014.
The same data is available at this site. Please update your bookmarks.
Thank you, and we apologize for the inconvenience.
Please send an email to SR-SRH.Webmaster@noaa.gov with any concerns.


Current Version
Previous Version:    01  02  03  04  05  06  07  08  09  10  11  12  13  14  15  16  17  18  19  20  21  22  23  
[Printable]
163
FTUS46 KSGX 021100
TAFONT
TAF
KONT 021122Z 0212/0318 25005KT 5SM BR SCT010
      TEMPO 0212/0215 3SM BR BKN008
     FM021700 VRB05KT P6SM SKC
     FM022200 25012KT P6SM SKC
     FM030300 25007KT P6SM SKC
     FM030900 25004KT 4SM BR SCT010=


U.S. Dept. of Commerce
NOAA National Weather Service
1325 East West Highway
Silver Spring, MD 20910
E-mail: w-nws.webmaster@noaa.gov
Page last modified: May 16, 2007
NATIONAL WEATHER SERVICE: for Safety, for Work, for Fun - FOR LIFE